Regional Weather Roundup
Issued by NWS Little Rock, AR

Home | Current Version | Previous Version | Text Only | Print | Product List | Glossary On
Versions: 1 2 3 4 5 6 7 8 9 10 11 12 13 14 15 16 17 18 19 20 21 22 23 24 25 26 27
000
ASUS44 KLZK 050905
RWRLZK

WEATHER ROUNDUP FOR ARKANSAS
NATIONAL WEATHER SERVICE LITTLE ROCK AR
400 AM CDT THU MAY 05 2016

NOTE: "FAIR" INDICATES FEW OR NO CLOUDS BELOW 12,000 FEET WITH NO
SIGNIFICANT WEATHER AND/OR OBSTRUCTIONS TO VISIBILITY.

ARZ001-003-010-029-051000-
NORTHWEST ARKANSAS

CITY           SKY/WX    TMP DP  RH WIND       PRES   REMARKS
FAYETTEVILLE   CLEAR     41  41 100 CALM      30.01S
FORT SMITH     CLEAR     50  43  77 CALM      29.99S
HARRISON       CLEAR     49  39  68 W6        29.98F
BENTONVILLE    CLEAR    N/A N/A N/A CALM      30.01S
ROGERS         CLEAR     45  41  86 CALM      30.02R
SILOAM SPGS    CLEAR     43  34  70 CALM      30.01F
HIGHFILL       CLEAR     47  40  76 N5        30.00S
$$

ARZ004-005-016-051000-
NORTH CENTRAL ARKANSAS

CITY           SKY/WX    TMP DP  RH WIND       PRES   REMARKS
BATESVILLE     CLEAR     52  37  58 NW5       29.95S
FLIPPIN        CLEAR    N/A N/A N/A CALM      29.94S
MTN HOME       CLEAR     46  40  79 NW3       29.95S
$$

ARZ040-041-051000-
WEST CENTRAL ARKANSAS

CITY           SKY/WX    TMP DP  RH WIND       PRES   REMARKS
MENA           CLEAR     55  41  58 CALM      29.99S
MOUNT IDA      CLEAR     47  43  86 W3        29.95S
$$

ARZ009-017-025-026-028-051000-
NORTHEAST ARKANSAS

CITY           SKY/WX    TMP DP  RH WIND       PRES   REMARKS
CORNING          N/A     50  41  71 W8        29.91S
JONESBORO      CLEAR     51  40  65 NW5       29.91F
NEWPORT        CLEAR     52  42  68 NW6       29.94S
WALNUT RIDGE   CLEAR     50  37  62 W7        29.92S
BLYTHEVILLE    CLEAR     52  44  74 W5        29.89S
$$

ARZ022-023-033-042-044-051000-
CENTRAL ARKANSAS

CITY           SKY/WX    TMP DP  RH WIND       PRES   REMARKS
LITTLE ROCK    CLEAR     57  42  57 NW7       29.95R
N LITTLE ROCK    N/A     55  43  65 NW3       29.94R
JACKSONVILLE   CLEAR     55  42  61 NW6       29.94R
SEARCY         CLEAR     54  41  62 NW6       29.96S
HOT SPRINGS    CLEAR     51  43  74 CALM      29.96S
RUSSELLVILLE   CLEAR     48  44  86 CALM      29.97S
CLINTON        FAIR      45  43  93 CALM      29.98R
$$

ARZ036-051000-
EAST ARKANSAS

CITY           SKY/WX    TMP DP  RH WIND       PRES   REMARKS
WEST MEMPHIS   CLEAR     50  48  93 CALM      29.90S
$$

ARZ050-053-066-070-073-051000-
SOUTHWEST ARKANSAS

CITY           SKY/WX    TMP DP  RH WIND       PRES   REMARKS
ARKADELPHIA    FAIR      56  53  89 CALM      29.97R
CAMDEN         CLEAR     48  46  93 CALM      29.96R
TEXARKANA      CLEAR     57  42  57 N5        29.97S
EL DORADO      CLEAR     53  46  77 NW5       29.95S
DE QUEEN       CLEAR     47  46  97 CALM      29.97S
$$

ARZ056-057-069-051000-
SOUTHEAST ARKANSAS

CITY           SKY/WX    TMP DP  RH WIND       PRES   REMARKS
PINE BLUFF     CLEAR     56  44  64 NW5       29.94S
STUTTGART      CLEAR     54  43  66 NW7       29.94S
MONTICELLO     CLEAR     56  45  66 NW3       29.93R

$$






USA.gov is the U.S. government's official web portal to all federal, state and local government web resources and services.